Location: Newark
(36.0000°N, 138.0000°E)
Time: 18:29:09
(UTC+00:00)

Tiangong 2 - Pass Details

Date: 23 March 2019
Orbit: 378 x 389 km, 42.8° (Epoch: 21 April)

Event Time Altitude Azimuth Distance (km) Brightness Sun altitude
Exits shadow 19:09:40 59° 132° (SE) 444 1.4 -20.2°
Drops below altitude 10° 19:12:18 10° 120° (ESE) 1,393 4.5 -19.7°
Sets 19:14:22 0° 119° (ESE) 2,246 5.6 -19.3°
